Time,TemperatureF,DewpointF,PressureIn,WindDirection,WindDirectionDegrees,WindSpeedMPH,WindSpeedGustMPH,Humidity,HourlyPrecipIn,Conditions,Clouds,dailyrainin,SoftwareType,DateUTC
2013-01-15 00:02:00,10.0,6.0,30.35,WSW,238,0.0,0.0,85,0.00,,,0.00,,2013-01-15 06:02:00,
2013-01-15 00:12:00,10.0,6.0,30.35,WSW,238,0.0,0.0,85,0.00,,,0.00,,2013-01-15 06:12:00,
2013-01-15 00:22:00,10.0,6.0,30.36,WSW,237,0.0,0.0,85,0.00,,,0.00,,2013-01-15 06:22:00,
2013-01-15 00:33:00,10.0,6.0,30.36,WSW,238,0.0,0.0,85,0.00,,,0.00,,2013-01-15 06:33:00,
2013-01-15 00:42:00,10.0,6.0,30.36,WSW,238,0.0,0.0,85,0.00,,,0.00,,2013-01-15 06:42:00,
2013-01-15 00:53:00,10.0,7.0,30.36,WSW,237,0.0,0.0,86,0.00,,,0.00,,2013-01-15 06:53:00,
2013-01-15 01:02:00,10.0,7.0,30.36,WSW,238,0.0,0.0,86,0.00,,,0.00,,2013-01-15 07:02:00,
2013-01-15 01:12:00,10.0,7.0,30.36,WSW,238,0.0,0.0,86,0.00,,,0.00,,2013-01-15 07:12:00,
2013-01-15 01:22:00,10.0,7.0,30.35,WSW,238,0.0,0.0,86,0.00,,,0.00,,2013-01-15 07:22:00,
2013-01-15 01:32:00,10.0,7.0,30.35,WSW,237,0.0,0.0,86,0.00,,,0.00,,2013-01-15 07:32:00,
2013-01-15 01:42:00,10.0,7.0,30.35,WSW,237,0.0,0.0,86,0.00,,,0.00,,2013-01-15 07:42:00,
2013-01-15 01:52:00,10.0,7.0,30.35,WSW,238,0.0,0.0,87,0.00,,,0.00,,2013-01-15 07:52:00,
2013-01-15 02:02:00,10.0,7.0,30.36,WSW,238,0.0,0.0,87,0.00,,,0.00,,2013-01-15 08:02:00,
2013-01-15 02:12:00,10.0,7.0,30.36,WSW,238,0.0,0.0,87,0.00,,,0.00,,2013-01-15 08:12:00,
2013-01-15 02:22:00,10.0,7.0,30.36,WSW,238,0.0,0.0,87,0.00,,,0.00,,2013-01-15 08:22:00,
2013-01-15 02:32:00,10.0,7.0,30.37,WSW,238,0.0,0.0,87,0.00,,,0.00,,2013-01-15 08:32:00,
2013-01-15 02:42:00,10.0,7.0,30.37,WSW,238,0.0,0.0,87,0.00,,,0.00,,2013-01-15 08:42:00,
2013-01-15 02:53:00,9.0,6.0,30.37,WSW,238,0.0,0.0,87,0.00,,,0.00,,2013-01-15 08:53:00,
2013-01-15 03:02:00,9.0,6.0,30.37,WSW,238,0.0,0.0,87,0.00,,,0.00,,2013-01-15 09:02:00,
2013-01-15 03:12:00,9.0,6.0,30.37,WSW,238,0.0,0.0,87,0.00,,,0.00,,2013-01-15 09:12:00,
2013-01-15 03:22:00,9.0,6.0,30.37,WSW,238,0.0,0.0,87,0.00,,,0.00,,2013-01-15 09:22:00,
2013-01-15 03:33:00,9.0,6.0,30.37,WSW,238,0.0,0.0,87,0.00,,,0.00,,2013-01-15 09:33:00,
2013-01-15 03:42:00,9.0,6.0,30.37,WSW,238,0.0,0.0,87,0.00,,,0.00,,2013-01-15 09:42:00,
2013-01-15 03:52:00,9.0,6.0,30.36,WSW,238,0.0,0.0,87,0.00,,,0.00,,2013-01-15 09:52:00,
2013-01-15 04:02:00,10.0,7.0,30.35,WSW,238,0.0,0.0,88,0.00,,,0.00,,2013-01-15 10:02:00,
2013-01-15 04:12:00,10.0,7.0,30.35,WSW,238,0.0,0.0,88,0.00,,,0.00,,2013-01-15 10:12:00,
2013-01-15 04:22:00,10.0,7.0,30.34,WSW,237,0.0,0.0,87,0.00,,,0.00,,2013-01-15 10:22:00,
2013-01-15 04:32:00,10.0,7.0,30.34,WSW,238,0.0,0.0,87,0.00,,,0.00,,2013-01-15 10:32:00,
2013-01-15 04:42:00,10.0,7.0,30.34,WSW,238,0.0,0.0,87,0.00,,,0.00,,2013-01-15 10:42:00,
2013-01-15 04:52:00,9.0,6.0,30.34,WSW,238,0.0,0.0,87,0.00,,,0.00,,2013-01-15 10:52:00,
2013-01-15 05:02:00,9.0,6.0,30.33,WSW,238,0.0,0.0,87,0.00,,,0.00,,2013-01-15 11:02:00,
2013-01-15 05:12:00,9.0,6.0,30.33,WSW,238,0.0,0.0,87,0.00,,,0.00,,2013-01-15 11:12:00,
2013-01-15 05:22:00,9.0,6.0,30.33,WSW,238,0.0,0.0,87,0.00,,,0.00,,2013-01-15 11:22:00,
2013-01-15 05:33:00,8.0,5.0,30.32,WSW,237,0.0,0.0,87,0.00,,,0.00,,2013-01-15 11:33:00,
2013-01-15 05:42:00,8.0,5.0,30.32,WSW,237,0.0,0.0,87,0.00,,,0.00,,2013-01-15 11:42:00,
2013-01-15 05:53:00,8.0,5.0,30.32,WSW,238,0.0,0.0,88,0.00,,,0.00,,2013-01-15 11:53:00,
2013-01-15 06:03:00,8.0,5.0,30.32,WSW,237,0.0,0.0,88,0.00,,,0.00,,2013-01-15 12:03:00,
2013-01-15 06:12:00,8.0,5.0,30.32,WSW,237,0.0,0.0,88,0.00,,,0.00,,2013-01-15 12:12:00,
2013-01-15 06:22:00,8.0,5.0,30.32,WSW,237,0.0,0.0,88,0.00,,,0.00,,2013-01-15 12:22:00,
2013-01-15 06:33:00,8.0,5.0,30.32,WSW,237,0.0,0.0,88,0.00,,,0.00,,2013-01-15 12:33:00,
2013-01-15 06:42:00,8.0,5.0,30.32,WSW,237,0.0,0.0,88,0.00,,,0.00,,2013-01-15 12:42:00,
2013-01-15 06:53:00,9.0,6.0,30.32,WSW,237,0.0,0.0,88,0.00,,,0.00,,2013-01-15 12:53:00,
2013-01-15 07:03:00,8.0,5.0,30.32,WSW,237,0.0,0.0,88,0.00,,,0.00,,2013-01-15 13:03:00,
2013-01-15 07:12:00,8.0,5.0,30.32,WSW,237,0.0,0.0,88,0.00,,,0.00,,2013-01-15 13:12:00,
2013-01-15 07:23:00,8.0,5.0,30.32,WSW,237,0.0,0.0,89,0.00,,,0.00,,2013-01-15 13:23:00,
2013-01-15 07:33:00,9.0,6.0,30.32,WSW,238,0.0,0.0,89,0.00,,,0.00,,2013-01-15 13:33:00,
2013-01-15 07:43:00,9.0,6.0,30.32,WSW,238,0.0,0.0,89,0.00,,,0.00,,2013-01-15 13:43:00,
2013-01-15 07:53:00,8.0,5.0,30.32,WSW,237,0.0,0.0,88,0.00,,,0.00,,2013-01-15 13:53:00,
2013-01-15 08:02:00,8.0,5.0,30.33,WSW,238,0.0,0.0,89,0.00,,,0.00,,2013-01-15 14:02:00,
2013-01-15 08:12:00,8.0,5.0,30.33,WSW,238,0.0,0.0,89,0.00,,,0.00,,2013-01-15 14:12:00,
2013-01-15 08:23:00,9.0,6.0,30.33,WSW,237,0.0,0.0,89,0.00,,,0.00,,2013-01-15 14:23:00,
2013-01-15 08:33:00,10.0,7.0,30.32,WSW,237,0.0,0.0,89,0.00,,,0.00,,2013-01-15 14:33:00,
2013-01-15 08:43:00,10.0,7.0,30.32,WSW,237,0.0,0.0,89,0.00,,,0.00,,2013-01-15 14:43:00,
2013-01-15 08:53:00,11.0,8.0,30.32,SE,146,1.0,5.0,89,0.00,,,0.00,,2013-01-15 14:53:00,
2013-01-15 09:03:00,12.0,9.0,30.33,SSE,167,0.0,5.0,88,0.00,,,0.00,,2013-01-15 15:03:00,
2013-01-15 09:12:00,12.0,9.0,30.33,SSE,167,0.0,5.0,88,0.00,,,0.00,,2013-01-15 15:12:00,
2013-01-15 09:23:00,12.0,9.0,30.34,South,180,3.0,7.0,87,0.00,,,0.00,,2013-01-15 15:23:00,
2013-01-15 09:33:00,14.0,11.0,30.34,SSE,153,4.0,7.0,87,0.00,,,0.00,,2013-01-15 15:33:00,
2013-01-15 09:43:00,14.0,11.0,30.34,SSE,153,4.0,7.0,87,0.00,,,0.00,,2013-01-15 15:43:00,
2013-01-15 09:53:00,15.0,12.0,30.34,South,175,3.0,9.0,86,0.00,,,0.00,,2013-01-15 15:53:00,
2013-01-15 10:02:00,16.0,12.0,30.34,SSW,192,6.0,10.0,84,0.00,,,0.00,,2013-01-15 16:02:00,
2013-01-15 10:12:00,16.0,12.0,30.34,SSW,192,6.0,10.0,84,0.00,,,0.00,,2013-01-15 16:12:00,
2013-01-15 10:22:00,17.0,13.0,30.34,SSW,206,5.0,8.0,83,0.00,,,0.00,,2013-01-15 16:22:00,
2013-01-15 10:33:00,18.0,13.0,30.33,SSE,150,5.0,8.0,80,0.00,,,0.00,,2013-01-15 16:33:00,
2013-01-15 10:42:00,18.0,13.0,30.33,SSE,150,5.0,8.0,80,0.00,,,0.00,,2013-01-15 16:42:00,
2013-01-15 10:53:00,20.0,14.0,30.32,South,182,5.0,9.0,78,0.00,,,0.00,,2013-01-15 16:53:00,
2013-01-15 11:03:00,21.0,15.0,30.31,SSW,206,5.0,8.0,76,0.00,,,0.00,,2013-01-15 17:03:00,
2013-01-15 11:12:00,21.0,15.0,30.31,SSW,206,5.0,8.0,76,0.00,,,0.00,,2013-01-15 17:12:00,
2013-01-15 11:22:00,22.0,15.0,30.31,SSE,152,5.0,10.0,73,0.00,,,0.00,,2013-01-15 17:22:00,
2013-01-15 11:33:00,23.0,15.0,30.29,SSW,194,6.0,12.0,71,0.00,,,0.00,,2013-01-15 17:33:00,
2013-01-15 11:42:00,23.0,15.0,30.29,SSW,194,6.0,12.0,71,0.00,,,0.00,,2013-01-15 17:42:00,
2013-01-15 11:53:00,24.0,15.0,30.28,SSW,198,6.0,13.0,69,0.00,,,0.00,,2013-01-15 17:53:00,
2013-01-15 12:03:00,25.0,16.0,30.27,South,172,5.0,13.0,68,0.00,,,0.00,,2013-01-15 18:03:00,
2013-01-15 12:12:00,25.0,16.0,30.27,South,172,5.0,13.0,68,0.00,,,0.00,,2013-01-15 18:12:00,
2013-01-15 12:23:00,25.0,16.0,30.27,SSW,199,5.0,12.0,67,0.00,,,0.00,,2013-01-15 18:23:00,
2013-01-15 12:33:00,26.0,16.0,30.26,South,189,6.0,11.0,65,0.00,,,0.00,,2013-01-15 18:33:00,
2013-01-15 12:42:00,26.0,16.0,30.26,South,189,6.0,11.0,65,0.00,,,0.00,,2013-01-15 18:42:00,
2013-01-15 12:53:00,26.0,16.0,30.25,South,191,9.0,13.0,64,0.00,,,0.00,,2013-01-15 18:53:00,
2013-01-15 13:03:00,27.0,16.0,30.25,SSW,211,5.0,14.0,62,0.00,,,0.00,,2013-01-15 19:03:00,
2013-01-15 13:12:00,27.0,16.0,30.25,SSW,211,5.0,14.0,62,0.00,,,0.00,,2013-01-15 19:12:00,
2013-01-15 13:23:00,27.0,16.0,30.25,SSW,196,7.0,19.0,62,0.00,,,0.00,,2013-01-15 19:23:00,
2013-01-15 13:33:00,27.0,16.0,30.24,SSW,195,5.0,11.0,62,0.00,,,0.00,,2013-01-15 19:33:00,
2013-01-15 13:42:00,27.0,16.0,30.24,SSW,195,5.0,11.0,62,0.00,,,0.00,,2013-01-15 19:42:00,
2013-01-15 13:53:00,27.0,15.0,30.24,South,183,10.0,16.0,60,0.00,,,0.00,,2013-01-15 19:53:00,
2013-01-15 14:03:00,27.0,15.0,30.23,South,178,6.0,14.0,60,0.00,,,0.00,,2013-01-15 20:03:00,
2013-01-15 14:12:00,27.0,15.0,30.23,South,178,6.0,14.0,60,0.00,,,0.00,,2013-01-15 20:12:00,
2013-01-15 14:23:00,27.0,15.0,30.22,South,175,6.0,15.0,60,0.00,,,0.00,,2013-01-15 20:23:00,
2013-01-15 14:33:00,27.0,15.0,30.21,South,173,5.0,13.0,60,0.00,,,0.00,,2013-01-15 20:33:00,
2013-01-15 14:43:00,27.0,15.0,30.21,South,173,5.0,13.0,60,0.00,,,0.00,,2013-01-15 20:43:00,
2013-01-15 14:53:00,28.0,15.0,30.22,SW,219,5.0,12.0,58,0.00,,,0.00,,2013-01-15 20:53:00,
2013-01-15 15:03:00,28.0,16.0,30.21,South,187,6.0,13.0,60,0.00,,,0.00,,2013-01-15 21:03:00,
2013-01-15 15:12:00,28.0,16.0,30.21,South,187,6.0,13.0,60,0.00,,,0.00,,2013-01-15 21:12:00,
2013-01-15 15:23:00,27.0,15.0,30.20,SW,214,3.0,11.0,60,0.00,,,0.00,,2013-01-15 21:23:00,
2013-01-15 15:33:00,27.0,15.0,30.20,South,173,5.0,12.0,61,0.00,,,0.00,,2013-01-15 21:33:00,
2013-01-15 15:43:00,27.0,15.0,30.20,South,173,5.0,12.0,61,0.00,,,0.00,,2013-01-15 21:43:00,
2013-01-15 15:53:00,26.0,14.0,30.19,SSE,168,5.0,11.0,61,0.00,,,0.00,,2013-01-15 21:53:00,
2013-01-15 16:03:00,26.0,15.0,30.19,SW,228,5.0,10.0,62,0.00,,,0.00,,2013-01-15 22:03:00,
2013-01-15 16:12:00,26.0,15.0,30.19,SW,228,5.0,10.0,62,0.00,,,0.00,,2013-01-15 22:12:00,
2013-01-15 16:23:00,26.0,16.0,30.19,SSE,165,2.0,8.0,64,0.00,,,0.00,,2013-01-15 22:23:00,
2013-01-15 16:33:00,25.0,15.0,30.19,SSW,199,4.0,12.0,64,0.00,,,0.00,,2013-01-15 22:33:00,
2013-01-15 16:43:00,25.0,15.0,30.19,SSW,199,4.0,12.0,64,0.00,,,0.00,,2013-01-15 22:43:00,
2013-01-15 16:53:00,25.0,15.0,30.19,South,191,4.0,10.0,65,0.00,,,0.00,,2013-01-15 22:53:00,
2013-01-15 17:02:00,24.0,14.0,30.19,South,171,5.0,11.0,66,0.00,,,0.00,,2013-01-15 23:02:00,
2013-01-15 17:12:00,24.0,14.0,30.19,South,171,5.0,11.0,66,0.00,,,0.00,,2013-01-15 23:12:00,
2013-01-15 17:22:00,24.0,15.0,30.18,South,185,3.0,9.0,67,0.00,,,0.00,,2013-01-15 23:22:00,
2013-01-15 17:32:00,23.0,14.0,30.18,South,173,1.0,10.0,67,0.00,,,0.00,,2013-01-15 23:32:00,
2013-01-15 17:42:00,23.0,14.0,30.18,South,173,1.0,10.0,67,0.00,,,0.00,,2013-01-15 23:42:00,
2013-01-15 17:53:00,23.0,14.0,30.18,South,182,2.0,5.0,69,0.00,,,0.00,,2013-01-15 23:53:00,
2013-01-15 18:02:00,22.0,14.0,30.18,South,186,3.0,6.0,70,0.00,,,0.00,,2013-01-16 00:02:00,
2013-01-15 18:12:00,22.0,14.0,30.18,South,186,3.0,6.0,70,0.00,,,0.00,,2013-01-16 00:12:00,
2013-01-15 18:22:00,22.0,14.0,30.18,SSW,194,2.0,9.0,70,0.00,,,0.00,,2013-01-16 00:22:00,
2013-01-15 18:32:00,22.0,14.0,30.17,SSW,194,2.0,7.0,70,0.00,,,0.00,,2013-01-16 00:32:00,
2013-01-15 18:43:00,22.0,14.0,30.17,SSW,194,2.0,7.0,70,0.00,,,0.00,,2013-01-16 00:43:00,
2013-01-15 18:53:00,22.0,14.0,30.17,SSW,202,4.0,9.0,70,0.00,,,0.00,,2013-01-16 00:53:00,
2013-01-15 19:02:00,21.0,13.0,30.16,SSW,198,1.0,8.0,71,0.00,,,0.00,,2013-01-16 01:02:00,
2013-01-15 19:12:00,21.0,13.0,30.16,SSW,198,1.0,8.0,71,0.00,,,0.00,,2013-01-16 01:12:00,
2013-01-15 19:22:00,21.0,13.0,30.15,South,184,2.0,8.0,71,0.00,,,0.00,,2013-01-16 01:22:00,
2013-01-15 19:33:00,21.0,13.0,30.14,SSW,192,0.0,9.0,71,0.00,,,0.00,,2013-01-16 01:33:00,
2013-01-15 19:42:00,21.0,13.0,30.14,SSW,192,0.0,9.0,71,0.00,,,0.00,,2013-01-16 01:42:00,
2013-01-15 19:53:00,20.0,12.0,30.14,SSW,207,1.0,7.0,72,0.00,,,0.00,,2013-01-16 01:53:00,
2013-01-15 20:02:00,20.0,12.0,30.13,SSW,197,0.0,5.0,72,0.00,,,0.00,,2013-01-16 02:02:00,
2013-01-15 20:12:00,20.0,12.0,30.13,SSW,197,0.0,5.0,72,0.00,,,0.00,,2013-01-16 02:12:00,
2013-01-15 20:22:00,20.0,13.0,30.12,South,171,1.0,6.0,73,0.00,,,0.00,,2013-01-16 02:22:00,
2013-01-15 20:32:00,20.0,13.0,30.11,SSW,203,1.0,8.0,73,0.00,,,0.00,,2013-01-16 02:32:00,
2013-01-15 20:42:00,20.0,13.0,30.11,SSW,203,1.0,8.0,73,0.00,,,0.00,,2013-01-16 02:42:00,
2013-01-15 20:53:00,19.0,12.0,30.11,SSW,211,3.0,7.0,74,0.00,,,0.00,,2013-01-16 02:53:00,
2013-01-15 21:02:00,19.0,12.0,30.10,SSW,195,4.0,9.0,75,0.00,,,0.00,,2013-01-16 03:02:00,
2013-01-15 21:12:00,19.0,12.0,30.10,SSW,195,4.0,9.0,75,0.00,,,0.00,,2013-01-16 03:12:00,
2013-01-15 21:22:00,19.0,12.0,30.09,SSW,194,3.0,7.0,75,0.00,,,0.00,,2013-01-16 03:22:00,
2013-01-15 21:32:00,19.0,12.0,30.08,SSW,195,1.0,7.0,75,0.00,,,0.00,,2013-01-16 03:32:00,
2013-01-15 21:42:00,19.0,12.0,30.08,SSW,195,1.0,7.0,75,0.00,,,0.00,,2013-01-16 03:42:00,
2013-01-15 21:53:00,18.0,12.0,30.08,South,190,2.0,7.0,76,0.00,,,0.00,,2013-01-16 03:53:00,
2013-01-15 22:02:00,18.0,12.0,30.07,SSW,195,3.0,8.0,77,0.00,,,0.00,,2013-01-16 04:02:00,
2013-01-15 22:12:00,18.0,12.0,30.07,SSW,195,3.0,8.0,77,0.00,,,0.00,,2013-01-16 04:12:00,
2013-01-15 22:22:00,18.0,12.0,30.07,SSW,192,4.0,7.0,77,0.00,,,0.00,,2013-01-16 04:22:00,
2013-01-15 22:32:00,18.0,12.0,30.07,SSW,205,1.0,6.0,78,0.00,,,0.00,,2013-01-16 04:32:00,
2013-01-15 22:42:00,18.0,12.0,30.07,SSW,205,1.0,6.0,78,0.00,,,0.00,,2013-01-16 04:42:00,
2013-01-15 22:52:00,17.0,12.0,30.06,SSW,196,1.0,6.0,79,0.00,,,0.00,,2013-01-16 04:52:00,
2013-01-15 23:03:00,17.0,12.0,30.05,South,188,3.0,6.0,79,0.00,,,0.00,,2013-01-16 05:03:00,
2013-01-15 23:12:00,17.0,12.0,30.05,South,188,3.0,6.0,79,0.00,,,0.00,,2013-01-16 05:12:00,
2013-01-15 23:22:00,17.0,12.0,30.05,SSW,208,0.0,5.0,80,0.00,,,0.00,,2013-01-16 05:22:00,
2013-01-15 23:32:00,17.0,12.0,30.04,SSW,195,1.0,5.0,80,0.00,,,0.00,,2013-01-16 05:32:00,
2013-01-15 23:42:00,17.0,12.0,30.04,SSW,195,1.0,5.0,80,0.00,,,0.00,,2013-01-16 05:42:00,
2013-01-15 23:53:00,16.0,11.0,30.03,SSW,194,0.0,4.0,81,0.00,,,0.00,,2013-01-16 05:53:00,